User: anonymous   Login
Location: Cincinnati Observatory Center
(39.1389°N, 84.4225°W)
Time: 14:28:39
(UTC-05:00)
Language:

JAS-1B - Orbit

View from above orbital plane
View from above orbital plane
View from above satellite
View from above satellite

Ground track
Ground track

The orbit data is extracted from the following two-line orbital elements,

1 20480U 90013C   17055.21042077 -.00000014  00000-0  49232-4 0  9998
2 20480  99.0326 209.6239 0539375 286.9646  67.3028 12.83414672267222
Epoch (UTC): 24 February 2017 05:03:00
Eccentricity: 0.0539375
inclination: 99.0326°
perigee height: 912 km
apogee height: 1743 km
right ascension of ascending node: 209.6239°
argument of perigee: 286.9646°
revolutions per day: 12.83414672
mean anomaly at epoch: 67.3028°
orbit number at epoch: 26722

The dashed part of the orbit path shows where the satellite is in the earth's shadow,  

DLR